Regional Weather Roundup
Issued by NWS Memphis, TN

Home | Current Version | Previous Version | Text Only | Print | Product List | Glossary On
Versions: 1 2 3 4 5 6 7 8 9 10 11 12 13 14 15 16 17 18 19 20 21 22 23 24 25 26 27 28 29 30 31 32 33 34 35 36 37 38 39 40 41 42 43 44 45 46 47 48 49 50
612
ASUS44 KMEG 050510
RWRMEG
MEMPHIS CWA HOURLY WEATHER ROUNDUP
NATIONAL WEATHER SERVICE MEMPHIS TN
1200 AM CDT THU MAY 05 2016

...WEST TENNESSEE...

CITY           SKY/WX    TMP DP  RH WIND       PRES   REMARKS
MEMPHIS INTL   PTCLDY    62  43  49 N8        29.90R
NWS MEMPHIS      N/A     60 N/A N/A MISG        N/A
JACKSON        PTCLDY    54  43  66 NE7       29.90R
LEXINGTON      CLEAR     52  41  66 CALM      29.88R
DYERSBURG      PTCLDY    55  43  62 NE9       29.90R
UNION CITY     CLEAR     52  43  71 CALM      29.89R


...EASTERN ARKANSAS...

CITY           SKY/WX    TMP DP  RH WIND       PRES   REMARKS
JONESBORO      CLEAR     59  39  47 NW3       29.92R
WEST MEMPHIS   CLEAR     59  49  69 N5        29.89R
BATESVILLE     CLEAR     61  36  39 CALM      29.95R
NEWPORT        CLEAR     56  43  61 NW7       29.95R
WALNUT RIDGE   CLEAR     55  41  58 N8        29.92S
BLYTHEVILLE    CLEAR     54  46  74 N7        29.91R
SEARCY         CLEAR     61  41  48 NW6       29.95R
STUTTGART      CLEAR     61  45  55 N9        29.93R
PINE BLUFF     CLEAR     62  45  53 NW9       29.92R
MONTICELLO     CLEAR     64  44  48 NW3       29.91R


...NORTH MISSISSIPPI...

CITY           SKY/WX    TMP DP  RH WIND       PRES   REMARKS
TUPELO         CLEAR     56  49  77 N6        29.86R
OXFORD         CLEAR     52  48  87 CALM      29.90R
BATESVILLE     FAIR      57  49  73 N3        29.89R
OLIVE BRANCH   PTCLDY    59  45  58 N7        29.90R
TUNICA         CLEAR     57  46  67 N8        29.90R
CORINTH        CLEAR     57  43  58 N5        29.88R
GREENWOOD      CLEAR     56  52  86 CALM      29.86R
COLUMBUS       FOG       54  54 100 NW1       29.84R VSB 3/4
STARKVILLE     FAIR      55  54  94 CALM      29.85R
GOLDEN TRIANGL   N/A    N/A N/A N/A MISG        N/A


...SOUTHEAST MISSOURI...

CITY           SKY/WX    TMP DP  RH WIND       PRES   REMARKS
KENNETT        FAIR      57  41  54 N6        29.91R
WEST PLAINS    CLEAR     52  35  52 NW5       29.97R
POPLAR BLUFF   CLEAR     53  39  59 W5        29.92R
CAPE GIRARDEAU CLEAR     47  43  86 W5        29.89F


...NORTHWEST ALABAMA...

CITY           SKY/WX    TMP DP  RH WIND       PRES   REMARKS
MUSCLE SHOALS  MOCLDY    57  45  64 VRB6      29.88R


...MIDDLE TENNESSEE...

CITY           SKY/WX    TMP DP  RH WIND       PRES   REMARKS
NASHVILLE      PTCLDY    52  41  66 NW7       29.86R
CLARKSVILLE    PTCLDY    50  41  71 NW5       29.87S
COLUMBIA       CLEAR    N/A N/A N/A CALM      29.85S


...WESTERN KENTUCKY...

CITY           SKY/WX    TMP DP  RH WIND       PRES   REMARKS
PADUCAH        MOCLDY    49  42  77 SW5       29.87F
FORT CAMPBELL  CLEAR     51  42  71 NW5       29.86S


...CENTRAL ARKANSAS...

CITY           SKY/WX    TMP DP  RH WIND       PRES   REMARKS
LITTLE ROCK    CLEAR     64  39  39 N12       29.94R


SKY/WX REPORTED AS FAIR MEANS FEW OR NO CLOUDS BELOW
12 THOUSAND FEET.





USA.gov is the U.S. government's official web portal to all federal, state and local government web resources and services.